Location: Unspecified
(0.0000°N, 0.0000°E)
Time: 13:59:06
(UTC+00:00)

Falcon 9 debris - Visible Passes

Search period start: 12 April 2021 00:00
Search period end: 22 April 2021 00:00
Orbit: 422 x 427 km, 53.0° (Epoch: 11 April)

Date Brightness Start Highest point End Pass type
(mag) Time Alt. Az. Time Alt. Az. Time Alt. Az.
12 Apr ? 19:23:26 10° SW 19:26:34 36° NW 19:28:35 18° N visible
13 Apr ? 18:37:33 10° SW 18:40:55 89° NW 18:44:17 10° NNE visible
15 Apr ? 05:29:32 10° N 05:32:23 25° NE 05:35:14 10° ESE visible
15 Apr ? 18:44:15 10° W 18:46:11 14° NW 18:48:06 10° NNW visible
16 Apr ? 04:45:19 10° NNE 04:46:42 12° NE 04:48:05 10° E visible
17 Apr ? 05:34:20 10° NW 05:37:37 46° SW 05:40:54 10° SSE visible
18 Apr ? 04:48:41 11° NNW 04:51:56 70° ENE 04:55:19 10° SE visible
19 Apr ? 04:07:17 24° E 04:07:17 24° E 04:09:15 10° ESE visible
20 Apr ? 04:58:44 14° SSW 04:58:44 14° SSW 04:59:33 10° S visible
